Regional Weather Roundup
Issued by NWS Grand Forks, ND

Home | Current Version | Previous Version | Text Only | Print | Product List | Glossary Off
Versions: 1 2 3 4 5 6 7 8 9 10 11 12 13 14 15 16 17 18 19 20 21 22 23 24 25 26 27 28 29 30 31 32 33 34 35 36 37 38 39 40 41 42 43 44 45 46 47 48 49 50

000
ASUS43 KFGF 281310
RWRFGF
PRAIRIE TO PINES  WEATHER ROUNDUP
NATIONAL WEATHER SERVICE EASTERN NORTH DAKOTA/GRAND FORKS ND
800 AM CDT SUN MAY 28 2017

 **SATELLITE DATA USED TO AUGMENT SKY COVER AT AUTOMATED STATIONS**
 *****  WEATHER ACROSS EASTERN NORTH DAKOTA  *****

CITY           SKY/WX    TMP DP  RH WIND       PRES   REMARKS
GRAND FORKS    PTSUNNY   55  50  83 W9        29.74S
GRAND FRKS AFB DRIZZLE   54  48  82 NW8       29.76R
DEVILS LAKE    CLOUDY    54  47  77 NW17G26   29.80R
FARGO          CLOUDY    54  47  77 W12       29.76R
WAHPETON ARPT  CLOUDY    54  45  71 NW13      29.78S
$$

 ***** WEATHER ACROSS CENTRAL AND WESTERN NORTH DAKOTA  *****

CITY           SKY/WX    TMP DP  RH WIND       PRES   REMARKS
BISMARCK       FAIR      55  42  61 NW9       29.92R
MINOT          FAIR      56  44  64 W14       29.89R
JAMESTOWN      CLOUDY    55  46  71 NW13      29.82R
MINOT AFB      FAIR      54  46  74 NW14      29.88S
GARRISON         N/A     52  44  74 NW13      29.91R
WILLISTON      PTSUNNY   54  38  54 CALM      29.98R
DICKINSON      FAIR      51  39  63 W8        29.97R
HETTINGER      FAIR      52  40  63 NW9       30.01R
$$

 *****  OTHER AIRPORT OBSERVATIONS IN OUR AREA  *****

CITY           SKY/WX    TMP DP  RH WIND       PRES   REMARKS
WALHALLA       NOT AVBL
GRAFTON AIRPOR PTSUNNY   54  52  94 NW9       29.76S
VALLEY CITY AR CLOUDY    55  50  82 NW13      29.81R
CANDO          NOT AVBL
CAVALIER APRT  CLOUDY    52  50  93 NW15      29.74R FOG
GWINNER        CLOUDY    57  46  67 MISG      29.81R
SHEYENNE NWR     N/A     54  48  81 NW7       29.95S
ROLLA          FAIR      52  46  82 NW20G28   29.82S
 ***** THE ABOVE OBSERVATIONS ARE NON NWS ARE NOT QUALITY
       CONTROLLED AND MAY MIS-REPORT RAIN FOR SNOW...
$$

  *****  WEATHER ACROSS NORTHERN MINNESOTA  *****

CITY           SKY/WX    TMP DP  RH WIND       PRES   REMARKS
FLAG ISLAND    FAIR      54  48  82 NW12      29.64S
WARROAD        FAIR      57  52  82 NW8       29.68S
ROSEAU         FAIR      55  48  76 NW9       29.68S
HALLOCK        CLOUDY    54  52  94 NW14      29.72S
THF RVR FALLS  CLOUDY    52  49  89 NW12      29.73S
BAUDETTE       FAIR      57  50  77 NW13      29.64S
WASKISH        PTSUNNY   54  48  82 W8        29.67R
CROOKSTON      CLOUDY    52  50  93 NW8       29.74S
STEPHEN NDAWN    N/A     52  50  93 NW8         N/A
GREENBUSH NDAW   N/A     52  48  87 W12         N/A
$$
  *****  WEATHER ACROSS CENTRAL AND WEST MINNESOTA  *****

CITY           SKY/WX    TMP DP  RH WIND       PRES   REMARKS
FOSSTON        FAIR      54  46  76 NW10      29.73R
BEMIDJI        CLOUDY    50  47  92 W10       29.69R
PARK RAPIDS    LGT RAIN  53  45  74 NW16      29.71R
ELBOW LAKE     FAIR      52  48  84 NW9       29.78S
WADENA         CLOUDY    52  48  87 W7        29.73S
DETROIT LAKES  FAIR      54  46  76 NW14      29.75S
MOORHEAD       FAIR      54  45  71 W13       29.77S
FERGUS FALLS   FAIR      52  50  93 NW8       29.76S
MORRIS MN      FAIR      55  48  76 W9        29.78R
STAPLES        PTSUNNY   52  46  82 NW7       29.73S
$$
  *****  WEATHER ELSEWHERE ACROSS MINNESOTA  *****

CITY           SKY/WX    TMP DP  RH WIND       PRES   REMARKS
DULUTH         CLOUDY    55  50  83 W10       29.66R
INTRNTL FALLS  CLOUDY    55  47  74 SW6       29.63S
ELY            FAIR      57  45  62 N5        29.62F
CLOQUET        CLOUDY    52  48  87 SW3       29.66S
WHEATON        FAIR      55  46  71 W6        29.81S
BRAINERD       CLOUDY    51  46  83 W10G20    29.72R
HIBBING        FAIR      53  51  93 VRB3      29.65S
ALEXANDRIA     FAIR      53  47  79 W13       29.77S
SAINT CLOUD    FAIR      55  48  77 W13       29.74R
MINNEAPOLIS    FAIR      61  48  62 W12       29.73R
$$

  *****  WEATHER ACROSS SOUTH DAKOTA  *****

CITY           SKY/WX    TMP DP  RH WIND       PRES   REMARKS
SIOUX FALLS    FAIR      58  50  75 W5        29.86R
BROOKINGS      FAIR      54  47  77 W5        29.85R
WATERTOWN      FAIR      56  45  66 N9        29.82S
HURON          FAIR      54  47  77 NW12      29.87R
SISSETON         N/A     59  46  62 NW12      29.79S
ABERDEEN       PTSUNNY   52  44  74 NW9       29.85R
MITCHELL       FAIR      56  47  71 W8        29.89R
PIERRE         FAIR      58  44  60 NW17      29.93R
MOBRIDGE       FAIR      55  43  63 NW7       29.91R
RAPID CITY     PTSUNNY   57  40  52 NW12      30.07R
$$

  *****  SOME WEATHER IN NEARBY STATES *****

CITY           SKY/WX    TMP DP  RH WIND       PRES   REMARKS
GLASGOW MT     FAIR      53  43  68 NW8       30.05R
GREAT FALLS MT PTSUNNY   49  42  77 W7        30.23R
CHEYENNE WY    FAIR      46  31  55 W12       30.27R
SCOTTSBLUFF NE FAIR      47  41  80 NW8       30.18R
OMAHA NE       FAIR      61  51  70 NW3       29.91R
DES MOINES IA  FAIR      62  54  74 W6        29.85R
DAVENPORT IA   CLOUDY    61  57  87 NW7       29.80R
CHICAGO IL     PTSUNNY   65  57  75 CALM      29.74R
EAU CLAIRE WI  FAIR      61  52  72 S8        29.71F
LA CROSSE WI   FAIR      63  57  81 SE8       29.76S
$$

  *****  SOME NATIONAL WEATHER *****

CITY           SKY/WX    TMP DP  RH WIND       PRES   REMARKS
LA GUARDIA NY  CLOUDY    62  58  86 SE5       29.94S FOG
RALEIGH NC     PTSUNNY   74  68  81 S6        29.86R
ATLANTA GA     LGT RAIN  66  65  96 SW9       30.00R
NEW ORLEANS LA PTSUNNY   80  75  84 CALM      30.04R
OKLAHOMA CITY  FAIR      66  60  81 N17       29.98R
ALBUQUERQUE NM FAIR      58  41  53 E21       30.23R
SALT LAKE CITY FAIR      54  41  61 CALM      30.24R
LOS ANGELES CA FAIR      58  56  93 S6        30.00S
BOISE ID       FAIR      56  40  55 SE5       30.19R
SEATTLE WA     FAIR      58  49  72 CALM      30.10R
$$

*** WEATHER ACROSS MANITOBA...SASKATCHEWAN AND ONTARIO ***
                ***ONTARIO***

CITY           SKY/WX    TMP DP  RH WIND       PRES   REMARKS
GERALDTON      CLOUDY    68  37  32 CALM      29.67F
THUNDER BAY    PTSUNNY   48  43  81 E12       29.68S
SIOUX LOOKOUT  PTSUNNY   54  48  82 S3        29.61S
TORONTO        PTSUNNY   59  55  88 SE3       29.86S
BIG TROUT LK   MOSUNNY   54  48  82 S2        29.62S
PICKLE LAKE    PTSUNNY   59  46  63 VRB2      29.62F
DRYDEN         PTSUNNY   55  48  76 S8        29.60S
KENORA         PTSUNNY   54  48  82 NW9       29.63S
$$
                *** MANITOBA***

CITY           SKY/WX    TMP DP  RH WIND       PRES   REMARKS
BRANDON        PTSUNNY   54  45  71 W22       29.78F
DAUPHIN        CLOUDY    52  48  87 W13       29.74S
ISLAND LAKE    LGT RAIN  52  50  93 W6        29.60S
PILOT MOUND      N/A     52  48  87 NW15G21     N/A
THE PAS        CLOUDY    43  41  93 N13G20    29.80S
THOMPSON       LGT RAIN  39  37  93 N9        29.73S
WINNIPEG       LGT RAIN  52  50  93 NW14      29.70S FOG
LYNN LAKE      CLOUDY    41  39  93 N13G21    29.85S
CHURCHILL      LGT RAIN  34  34 100 NE14      29.80R WCI  24
GILLAM         DRIZZLE   36  36 100 N14       29.69S FOG
$$
                ***SASKATCHEWAN***

CITY           SKY/WX    TMP DP  RH WIND       PRES   REMARKS
ESTEVAN        PTSUNNY   48  41  76 W10       29.93S
KINDERSLEY     SUNNY     52  41  66 N14       30.13R
LLOYDMINSTER   MOSUNNY   50  43  76 N13G20    30.18R
PRINCE ALBERT  MOSUNNY   52  45  76 NW14      30.01R
REGINA         MOSUNNY   54  43  66 NW15G22   29.97R
YORKTON          N/A     54  45  71 NW22G28   29.85R
N. BATTLEFORD  SUNNY     50  43  76 NW14      30.13R
LA RONGE       PTSUNNY   50  45  81 NW14G23   29.99R
SASKATOON      MOSUNNY   52  43  71 NW9       30.07R
SWIFT CURRENT  SUNNY     50  39  66 NW10      30.08R
$$
NOTE: THESE ARE AUTOMATED STATIONS WITH LIMITED QUALITY CONTROL
      "FAIR" INDICATES FEW OR NO CLOUDS BELOW 12,000 FEET WITH NO
      SIGNIFICANT WEATHER AND/OR OBSTRUCTIONS TO VISIBILITY.
      SKY/WX - SKY CONDITION AND SIGNIFICANT WEATHER.
      TMP - AIR TEMPERATURE.    DP   - DEWPOINT TEMPERATURE.
      RH  - RELATIVE HUMIDITY.  PRES - PRESSURE.
      HX  - HEAT INDEX.         WCI  - WIND CHILL INDEX.
$




USA.gov is the U.S. government's official web portal to all federal, state and local government web resources and services.